Regional Weather Roundup
Issued by NWS Upton, NY

Current Version | Previous Version | Graphics & Text | Print | Product List | Glossary On
Versions: 1 2 3 4 5 6 7 8 9 10 11 12 13 14 15 16 17 18 19 20 21 22 23 24 25 26 27 28 29 30 31 32 33 34 35 36 37 38 39 40 41 42 43 44 45 46 47 48 49 50
000
ASUS41 KOKX 310214
RWROKX

Regional Weather Roundup
National Weather Service New York NY
1000 PM EDT FRI OCT 30 2020

Note: "FAIR" indicates few or no clouds below 12,000 feet with no
significant weather and/or obstructions to visibility.

NYZ071-072-176-178-NJZ106-104-310300-
New York City Metro Area

CITY           SKY/WX    TMP DP  RH WIND       PRES   REMARKS
Central Park   CLEAR     39  33  79 N7        30.26R WCI  34
Bronx Lehman C   N/A     36  32  87 N5          N/A  WCI  32
LaGuardia Arpt PTCLDY    39  32  76 N9        30.25R WCI  33
Queens College   N/A     37  32  81 N9          N/A  WCI  31
Kennedy Intl   PTCLDY    37  32  82 N9        30.24R WCI  30
Breezy Point   NOT AVBL
Brooklyn Coll    N/A     39  34  81 N7          N/A  WCI  34
Staten Island    N/A     37  34  87 NE6         N/A  WCI  33
Newark/Liberty PTCLDY    38  34  85 N12       30.24R WCI  30
Teterboro      CLEAR     37  32  82 N3        30.24R
$$

NYZ177-179-078>081-310300-
Long Island New York

CITY           SKY/WX    TMP DP  RH WIND       PRES   REMARKS
Jones Beach      N/A     41 N/A N/A N9          N/A
Wantagh          N/A     37  34  87 NW5         N/A  WCI  34
Hempstead      NOT AVBL
Matinecock Pt    N/A     39 N/A N/A N14         N/A  WCI  31
Farmingdale    CLEAR     39  30  70 N7        30.23R WCI  34
MacArthur/ISP  PTCLDY    38  32  79 N8        30.22R WCI  32
Shirley        CLEAR     38  30  73 NW7       30.22R WCI  33
Mt Sinai Harb    N/A     41 N/A N/A N15G23      N/A
Westhampton    CLEAR     31  27  85 NW5       30.23R WCI  26
East Hampton   MOCLDY    35  27  74 N5        30.20R WCI  31
Southold         N/A     37  28  70 N10         N/A  WCI  30
Montauk          N/A     39  28  64 N12       30.20R WCI  32
$$

NYZ052-065-067-310300-
Hudson Valley

CITY           SKY/WX    TMP DP  RH WIND       PRES   REMARKS
White Plains   CLEAR     33  29  85 NW9       30.22R WCI  25
Larchmont Harb   N/A     36 N/A N/A N5          N/A  WCI  32
Croton On Huds   N/A     36 N/A N/A N5          N/A  WCI  32
Somers           N/A     32  30  93 W2          N/A
Brewster         N/A     32  30  93 N6          N/A  WCI  26
Newburgh       MOCLDY    34  32  93 CALM      30.23R
Montgomery     FOG       28  28 100 CALM      30.23R VSB 1/4
Otisville        N/A     32  30  93 NW2         N/A
Warwick          N/A     30  30 100 NW1         N/A
Suffern          N/A     32  32 100 NE1         N/A
Poughkeepsie   MOCLDY    31  29  92 CALM      30.24R
Albany         PTCLDY    25  25 100 NW7       30.25R WCI  17
$$

NJZ001-105-106-008-010-013-015-019>022-104-310300-
New Jersey

CITY           SKY/WX    TMP DP  RH WIND       PRES   REMARKS
Newark/Liberty PTCLDY    38  34  85 N12       30.24R WCI  30
Teterboro      CLEAR     37  32  82 N3        30.24R
Caldwell       CLEAR     38  34  85 NE3       30.25R
Somerville     CLEAR     33  31  92 CALM      30.24R
Linden         FAIR      38  34  84 CALM      30.25R
Perth Amboy      N/A     39 N/A N/A N5          N/A
Sussex         CLEAR     31  28  89 NE5       30.23R WCI  26
Andover          N/A     34  25  69 CALM      30.23R
Trenton        CLEAR     39  32  76 NW3       30.24R
Millville      MOCLDY    38  36  92 W5        30.24R WCI  34
Atlantic City  CLEAR     42  37  82 NW9       30.24R
Wrightstown    CLEAR     40  33  77 NW7       30.23  WCI  35
Toms River     CLEAR     39  37  92 NW7       30.23R WCI  34
Belmar         PTCLDY    39  38  96 NW5       30.25R
$$

PAZ047>061-062-071-310300-
Eastern Pennsylvania

CITY           SKY/WX    TMP DP  RH WIND       PRES   REMARKS
Philadelphia   PTCLDY    43  32  65 N9        30.25R
Allentown      CLEAR     37  29  72 NW7       30.25R WCI  32
Scranton       CLEAR     34  27  75 NE5       30.24R WCI  30
$$

CTZ002-004>006-009-010-012-RIZ004-006-007-MAZ004-011-015-310300-
Southern New England

 In CT

CITY           SKY/WX    TMP DP  RH WIND       PRES   REMARKS
Bradley Intl   CLEAR     31  27  85 CALM      30.21R
Hartford       CLEAR     32  29  88 N7        30.22R WCI  26
Danbury        CLEAR     32  28  85 CALM      30.23R
Wtrbury/Oxford CLEAR     30  29  96 NW5       30.21R WCI  25
Norwalk Harbor   N/A     36 N/A N/A NW8         N/A  WCI  29
Bridgeport     CLEAR     36  30  79 N6        30.23R WCI  31
Meriden        CLEAR     29  27  92 CALM      30.22R
New Haven      CLEAR     35  30  82 N7        30.22R WCI  29
Chester        FAIR      32  30  93 CALM      30.20R
Groton         CLEAR     32  29  88 CALM      30.21R
Willimantic    CLEAR     29  27  92 CALM      30.21R

 In RI

CITY           SKY/WX    TMP DP  RH WIND       PRES   REMARKS
Providence     CLEAR     31  28  89 NW5       30.20R WCI  26
Block Island   CLOUDY    36  27  69 N12       30.19R WCI  28
Westerly       CLEAR     31  28  89 NW3       30.20R

In MA

CITY           SKY/WX    TMP DP  RH WIND       PRES   REMARKS
Boston         PTCLDY    32  26  78 NW9       30.19R WCI  24
Worcester      CLEAR     30  25  81 NW10      30.15R WCI  21
Westfield      CLEAR     29  27  92 N3        30.21R
Provincetown   PTCLDY    40  26  57 N16G23    30.15R WCI  31
Nantucket      CLOUDY   N/A N/A N/A N17       30.12R
$$

ANZ330-335-338-340-345-350-353-355-310300-
Coastal Marine Observations


STATION/POSITION TIME  SKY/WX   TEMP    WIND        PRES    VSBY  WAVE
                                AIR SEA DIR/SP/G                  HT/PER
                 (UTC)          (F)     (DEG/KT/KT) (MB)    (MI)  (FT/S)
NY Harb Entrance 0150               61  360/ 14/ 19 1022.9          6/10
20 S Fire Island 0150               62  360/ 16/ 21 1022.4          7/10
Great South Bay  0130            41     350/ 12/ 14   N/A
23 SSW Montauk P NOT AVBL
15 E Barnegat Li 0156               62                N/A           8/11
Hudson Canyon    0150               65              1021.1         13/11
Kings Point      0042            41                   N/A
Execution Rocks  0145            42      70/ 17/ 17   N/A
Western LI Sound NOT AVBL
Central LI Sound NOT AVBL
Robbins Reef     0042            41                   N/A
$$


>>>>>>>>>>>>>>>>>>>>>>>>>>>> KEY <<<<<<<<<<<<<<<<<<<<<<<<<<<
>                                                          <
>     SKY/WX - Sky Condition/Present Weather               <
>     TMP    - Temperature in Fahrenheit                   <
>     DP     - Dew Point in Fahrenheit                     <
>     RH     - Relative Humidity in Percent                <
>     WIND   - Direction (from) and Speed in MPH           <
>     PRES   - Mean Sea Level Pressure (inches of Hg)      <
>     WCI    - Wind Chill Index                            <
>     VSB    - Visibility in Miles                         <
>     HX     - Heat Index                                  <
>     TC     - Temperature in Celsius                      <
>     VRB    - Variable Wind Direction                     <
>                                                          <
>>>>>>>>>>>>>>>>>>>>>>>>>>>> KEY <<<<<<<<<<<<<<<<<<<<<<<<<<<




USA.gov is the U.S. government's official web portal to all federal, state and local government web resources and services.